Year,Month,Day,Hour,Minute,Value (Times are PST for temperature in C)
2011,08,23,00,00,15.90
2011,08,23,00,01,15.90
2011,08,23,00,02,15.90
2011,08,23,00,03,15.90
2011,08,23,00,04,16.00
2011,08,23,00,05,16.00
2011,08,23,00,06,16.00
2011,08,23,00,07,16.10
2011,08,23,00,08,16.10
2011,08,23,00,09,16.20
2011,08,23,00,10,16.30
2011,08,23,00,11,16.30
2011,08,23,00,12,16.40
2011,08,23,00,13,16.50
2011,08,23,00,14,16.60
2011,08,23,00,15,16.60
2011,08,23,00,16,16.60
2011,08,23,00,17,16.60
2011,08,23,00,18,16.60
2011,08,23,00,19,16.60
2011,08,23,00,20,16.50
2011,08,23,00,21,16.40
2011,08,23,00,22,16.40
2011,08,23,00,23,16.30
2011,08,23,00,24,16.30
2011,08,23,00,25,16.30
2011,08,23,00,26,16.20
2011,08,23,00,27,16.20
2011,08,23,00,28,16.20
2011,08,23,00,29,16.10
2011,08,23,00,30,16.10
2011,08,23,00,31,16.10
2011,08,23,00,32,16.10
2011,08,23,00,33,16.00
2011,08,23,00,34,16.00
2011,08,23,00,35,15.90
2011,08,23,00,36,15.90
2011,08,23,00,37,15.90
2011,08,23,00,38,15.80
2011,08,23,00,39,15.80
2011,08,23,00,40,15.80
2011,08,23,00,41,15.70
2011,08,23,00,42,15.70
2011,08,23,00,43,15.70
2011,08,23,00,44,15.70
2011,08,23,00,45,15.70
2011,08,23,00,46,15.70
2011,08,23,00,47,15.70
2011,08,23,00,48,15.60
2011,08,23,00,49,15.60
2011,08,23,00,50,15.60
2011,08,23,00,51,15.60
2011,08,23,00,52,15.60
2011,08,23,00,53,15.50
2011,08,23,00,54,15.50
2011,08,23,00,55,15.50
2011,08,23,00,56,15.40
2011,08,23,00,57,15.40
2011,08,23,00,58,15.40
2011,08,23,00,59,15.40
2011,08,23,01,00,15.40
2011,08,23,01,01,15.40
2011,08,23,01,02,15.40
2011,08,23,01,03,15.40
2011,08,23,01,04,15.40
2011,08,23,01,05,15.40
2011,08,23,01,06,15.40
2011,08,23,01,07,15.40
2011,08,23,01,08,15.40
2011,08,23,01,09,15.40
2011,08,23,01,10,15.50
2011,08,23,01,11,15.50
2011,08,23,01,12,15.50
2011,08,23,01,13,15.50
2011,08,23,01,14,15.50
2011,08,23,01,15,15.50
2011,08,23,01,16,15.50
2011,08,23,01,17,15.40
2011,08,23,01,18,15.50
2011,08,23,01,19,15.50
2011,08,23,01,20,15.50
2011,08,23,01,21,15.50
2011,08,23,01,22,15.50
2011,08,23,01,23,15.50
2011,08,23,01,24,15.50
2011,08,23,01,25,15.50
2011,08,23,01,26,15.50
2011,08,23,01,27,15.50
2011,08,23,01,28,15.50
2011,08,23,01,29,15.50
2011,08,23,01,30,15.60
2011,08,23,01,31,15.60
2011,08,23,01,32,15.60
2011,08,23,01,33,15.60
2011,08,23,01,34,15.50
2011,08,23,01,35,15.50
2011,08,23,01,36,15.50
2011,08,23,01,37,15.50
2011,08,23,01,38,15.50
2011,08,23,01,39,15.50
2011,08,23,01,40,15.50
2011,08,23,01,41,15.50
2011,08,23,01,42,15.50
2011,08,23,01,43,15.50
2011,08,23,01,44,15.50
2011,08,23,01,45,15.50
2011,08,23,01,46,15.50
2011,08,23,01,47,15.60
2011,08,23,01,48,15.60
2011,08,23,01,49,15.70
2011,08,23,01,50,15.70
2011,08,23,01,51,15.70
2011,08,23,01,52,15.70
2011,08,23,01,53,15.70
2011,08,23,01,54,15.70
2011,08,23,01,55,15.70
2011,08,23,01,56,15.70
2011,08,23,01,57,15.60
2011,08,23,01,58,15.60
2011,08,23,01,59,15.60
2011,08,23,02,00,15.60
2011,08,23,02,01,15.50
2011,08,23,02,02,15.50
2011,08,23,02,03,15.40
2011,08,23,02,04,15.40
2011,08,23,02,05,15.40
2011,08,23,02,06,15.40
2011,08,23,02,07,15.40
2011,08,23,02,08,15.30
2011,08,23,02,09,15.30
2011,08,23,02,10,15.20
2011,08,23,02,11,15.20
2011,08,23,02,12,15.20
2011,08,23,02,13,15.10
2011,08,23,02,14,15.10
2011,08,23,02,15,15.00
2011,08,23,02,16,15.00
2011,08,23,02,17,15.00
2011,08,23,02,18,15.00
2011,08,23,02,19,15.00
2011,08,23,02,20,15.00
2011,08,23,02,21,15.00
2011,08,23,02,22,15.00
2011,08,23,02,23,15.00
2011,08,23,02,24,15.00
2011,08,23,02,25,15.00
2011,08,23,02,26,15.00
2011,08,23,02,27,15.00
2011,08,23,02,28,15.00
2011,08,23,02,29,15.00
2011,08,23,02,30,15.00
2011,08,23,02,31,15.00
2011,08,23,02,32,15.00
2011,08,23,02,33,15.00
2011,08,23,02,34,15.00
2011,08,23,02,35,15.00
2011,08,23,02,36,15.00
2011,08,23,02,37,14.90
2011,08,23,02,38,14.90
2011,08,23,02,39,14.90
2011,08,23,02,40,14.80
2011,08,23,02,41,14.80
2011,08,23,02,42,14.80
2011,08,23,02,43,14.80
2011,08,23,02,44,14.70
2011,08,23,02,45,14.70
2011,08,23,02,46,14.70
2011,08,23,02,47,14.70
2011,08,23,02,48,14.60
2011,08,23,02,49,14.60
2011,08,23,02,50,14.60
2011,08,23,02,51,14.60
2011,08,23,02,52,14.60
2011,08,23,02,53,14.60
2011,08,23,02,54,14.60
2011,08,23,02,55,14.60
2011,08,23,02,56,14.60
2011,08,23,02,57,14.60
2011,08,23,02,58,14.60
2011,08,23,02,59,14.60
2011,08,23,03,00,14.60
2011,08,23,03,01,14.60
2011,08,23,03,02,14.60
2011,08,23,03,03,14.50
2011,08,23,03,04,14.50
2011,08,23,03,05,14.50
2011,08,23,03,06,14.50
2011,08,23,03,07,14.40
2011,08,23,03,08,14.40
2011,08,23,03,09,14.40
2011,08,23,03,10,14.40
2011,08,23,03,11,14.40
2011,08,23,03,12,14.40
2011,08,23,03,13,14.40
2011,08,23,03,14,14.40
2011,08,23,03,15,14.40
2011,08,23,03,16,14.40
2011,08,23,03,17,14.40
2011,08,23,03,18,14.40
2011,08,23,03,19,14.40
2011,08,23,03,20,14.30
2011,08,23,03,21,14.30
2011,08,23,03,22,14.30
2011,08,23,03,23,14.30
2011,08,23,03,24,14.30
2011,08,23,03,25,14.30
2011,08,23,03,26,14.30
2011,08,23,03,27,14.30
2011,08,23,03,28,14.30
2011,08,23,03,29,14.30
2011,08,23,03,30,14.30
2011,08,23,03,31,14.30
2011,08,23,03,32,14.30
2011,08,23,03,33,14.30
2011,08,23,03,34,14.30
2011,08,23,03,35,14.30
2011,08,23,03,36,14.30
2011,08,23,03,37,14.30
2011,08,23,03,38,14.30
2011,08,23,03,39,14.30
2011,08,23,03,40,14.30
2011,08,23,03,41,14.30
2011,08,23,03,42,14.30
2011,08,23,03,43,14.30
2011,08,23,03,44,14.30
2011,08,23,03,45,14.30
2011,08,23,03,46,14.30
2011,08,23,03,47,14.30
2011,08,23,03,48,14.30
2011,08,23,03,49,14.30
2011,08,23,03,50,14.30
2011,08,23,03,51,14.30
2011,08,23,03,52,14.30
2011,08,23,03,53,14.30
2011,08,23,03,54,14.30
2011,08,23,03,55,14.30
2011,08,23,03,56,14.30
2011,08,23,03,57,14.30
2011,08,23,03,58,14.30
2011,08,23,03,59,14.30
2011,08,23,04,00,14.30
2011,08,23,04,01,14.30
2011,08,23,04,02,14.30
2011,08,23,04,03,14.30
2011,08,23,04,04,14.30
2011,08,23,04,05,14.30
2011,08,23,04,06,14.30
2011,08,23,04,07,14.30
2011,08,23,04,08,14.30
2011,08,23,04,09,14.30
2011,08,23,04,10,14.30
2011,08,23,04,11,14.30
2011,08,23,04,12,14.30
2011,08,23,04,13,14.30
2011,08,23,04,14,14.30
2011,08,23,04,15,14.30
2011,08,23,04,16,14.30
2011,08,23,04,17,14.30
2011,08,23,04,18,14.30
2011,08,23,04,19,14.30
2011,08,23,04,20,14.30
2011,08,23,04,21,14.30
2011,08,23,04,22,14.30
2011,08,23,04,23,14.30
2011,08,23,04,24,14.30
2011,08,23,04,25,14.30
2011,08,23,04,26,14.30
2011,08,23,04,27,14.40
2011,08,23,04,28,14.50
2011,08,23,04,29,14.50
2011,08,23,04,30,14.70
2011,08,23,04,31,14.90
2011,08,23,04,32,15.00
2011,08,23,04,33,15.00
2011,08,23,04,34,15.10
2011,08,23,04,35,15.30
2011,08,23,04,36,15.40
2011,08,23,04,37,15.40
2011,08,23,04,38,15.40
2011,08,23,04,39,15.50
2011,08,23,04,40,15.50
2011,08,23,04,41,15.50
2011,08,23,04,42,15.50
2011,08,23,04,43,15.50
2011,08,23,04,44,15.60
2011,08,23,04,45,15.60
2011,08,23,04,46,15.60
2011,08,23,04,47,15.70
2011,08,23,04,48,15.70
2011,08,23,04,49,15.70
2011,08,23,04,50,15.70
2011,08,23,04,51,15.70
2011,08,23,04,52,15.70
2011,08,23,04,53,15.70
2011,08,23,04,54,15.60
2011,08,23,04,55,15.60
2011,08,23,04,56,15.60
2011,08,23,04,57,15.60
2011,08,23,04,58,15.60
2011,08,23,04,59,15.60
2011,08,23,05,00,15.50
2011,08,23,05,01,15.50
2011,08,23,05,02,15.40
2011,08,23,05,03,15.40
2011,08,23,05,04,15.40
2011,08,23,05,05,15.30
2011,08,23,05,06,15.30
2011,08,23,05,07,15.20
2011,08,23,05,08,15.10
2011,08,23,05,09,15.10
2011,08,23,05,10,15.00
2011,08,23,05,11,15.00
2011,08,23,05,12,15.00
2011,08,23,05,13,15.00
2011,08,23,05,14,15.00
2011,08,23,05,15,15.00
2011,08,23,05,16,15.00
2011,08,23,05,17,15.00
2011,08,23,05,18,15.00
2011,08,23,05,19,15.00
2011,08,23,05,20,15.00
2011,08,23,05,21,15.10
2011,08,23,05,22,15.20
2011,08,23,05,23,15.30
2011,08,23,05,24,15.30
2011,08,23,05,25,15.40
2011,08,23,05,26,15.40
2011,08,23,05,27,15.50
2011,08,23,05,28,15.60
2011,08,23,05,29,15.60
2011,08,23,05,30,15.70
2011,08,23,05,31,15.70
2011,08,23,05,32,15.80
2011,08,23,05,33,15.80
2011,08,23,05,34,15.80
2011,08,23,05,35,15.80
2011,08,23,05,36,15.80
2011,08,23,05,37,15.90
2011,08,23,05,38,15.90
2011,08,23,05,39,16.00
2011,08,23,05,40,16.00
2011,08,23,05,41,16.00
2011,08,23,05,42,16.00
2011,08,23,05,43,16.00
2011,08,23,05,44,16.00
2011,08,23,05,45,16.00
2011,08,23,05,46,16.10
2011,08,23,05,47,16.10
2011,08,23,05,48,16.10
2011,08,23,05,49,16.10
2011,08,23,05,50,16.20
2011,08,23,05,51,16.20
2011,08,23,05,52,16.20
2011,08,23,05,53,16.20
2011,08,23,05,54,16.20
2011,08,23,05,55,16.20
2011,08,23,05,56,16.20
2011,08,23,05,57,16.20
2011,08,23,05,58,16.20
2011,08,23,05,59,16.20
2011,08,23,06,00,16.20
2011,08,23,06,01,16.20
2011,08,23,06,02,16.20
2011,08,23,06,03,16.30
2011,08,23,06,04,16.30
2011,08,23,06,05,16.30
2011,08,23,06,06,16.30
2011,08,23,06,07,16.30
2011,08,23,06,08,16.30
2011,08,23,06,09,16.30
2011,08,23,06,10,16.30
2011,08,23,06,11,16.30
2011,08,23,06,12,16.30
2011,08,23,06,13,16.30
2011,08,23,06,14,16.40
2011,08,23,06,15,16.40
2011,08,23,06,16,16.40
2011,08,23,06,17,16.40
2011,08,23,06,18,16.40
2011,08,23,06,19,16.40
2011,08,23,06,20,16.40
2011,08,23,06,21,16.40
2011,08,23,06,22,16.40
2011,08,23,06,23,16.50
2011,08,23,06,24,16.50
2011,08,23,06,25,16.50
2011,08,23,06,26,16.50
2011,08,23,06,27,16.50
2011,08,23,06,28,16.50
2011,08,23,06,29,16.50
2011,08,23,06,30,16.50
2011,08,23,06,31,16.50
2011,08,23,06,32,16.50
2011,08,23,06,33,16.50
2011,08,23,06,34,16.50
2011,08,23,06,35,16.50
2011,08,23,06,36,16.50
2011,08,23,06,37,16.50
2011,08,23,06,38,16.60
2011,08,23,06,39,16.60
2011,08,23,06,40,16.60
2011,08,23,06,41,16.60
2011,08,23,06,42,16.60
2011,08,23,06,43,16.60
2011,08,23,06,44,16.60
2011,08,23,06,45,16.60
2011,08,23,06,46,16.60
2011,08,23,06,47,16.60
2011,08,23,06,48,16.60
2011,08,23,06,49,16.60
2011,08,23,06,50,16.60
2011,08,23,06,51,16.60
2011,08,23,06,52,16.50
2011,08,23,06,53,16.50
2011,08,23,06,54,16.50
2011,08,23,06,55,16.50
2011,08,23,06,56,16.60
2011,08,23,06,57,16.60
2011,08,23,06,58,16.60
2011,08,23,06,59,16.60
2011,08,23,07,00,16.60
2011,08,23,07,01,16.60
2011,08,23,07,02,16.50
2011,08,23,07,03,16.50
2011,08,23,07,04,16.50
2011,08,23,07,05,16.50
2011,08,23,07,06,16.50
2011,08,23,07,07,16.50
2011,08,23,07,08,16.50
2011,08,23,07,09,16.50
2011,08,23,07,10,16.50
2011,08,23,07,11,16.50
2011,08,23,07,12,16.40
2011,08,23,07,13,16.40
2011,08,23,07,14,16.40
2011,08,23,07,15,16.40
2011,08,23,07,16,16.40
2011,08,23,07,17,16.40
2011,08,23,07,18,16.40
2011,08,23,07,19,16.40
2011,08,23,07,20,16.40
2011,08,23,07,21,16.50
2011,08,23,07,22,16.50
2011,08,23,07,23,16.60
2011,08,23,07,24,16.60
2011,08,23,07,25,16.60
2011,08,23,07,26,16.60
2011,08,23,07,27,16.60
2011,08,23,07,28,16.60
2011,08,23,07,29,16.50
2011,08,23,07,30,16.50
2011,08,23,07,31,16.50
2011,08,23,07,32,16.50
2011,08,23,07,33,16.50
2011,08,23,07,34,16.50
2011,08,23,07,35,16.50
2011,08,23,07,36,16.60
2011,08,23,07,37,16.60
2011,08,23,07,38,16.60
2011,08,23,07,39,16.60
2011,08,23,07,40,16.60
2011,08,23,07,41,16.60
2011,08,23,07,42,16.60
2011,08,23,07,43,16.60
2011,08,23,07,44,16.60
2011,08,23,07,45,16.60
2011,08,23,07,46,16.50
2011,08,23,07,47,16.50
2011,08,23,07,48,16.50
2011,08,23,07,49,16.60
2011,08,23,07,50,16.60
2011,08,23,07,51,16.60
2011,08,23,07,52,16.60
2011,08,23,07,53,16.60
2011,08,23,07,54,16.70
2011,08,23,07,55,16.70
2011,08,23,07,56,16.60
2011,08,23,07,57,16.50
2011,08,23,07,58,16.50
2011,08,23,07,59,16.50
2011,08,23,08,00,16.60
2011,08,23,08,01,16.60
2011,08,23,08,02,16.60
2011,08,23,08,03,16.60
2011,08,23,08,04,16.60
2011,08,23,08,05,16.60
2011,08,23,08,06,16.60
2011,08,23,08,07,16.60
2011,08,23,08,08,16.60
2011,08,23,08,09,16.70
2011,08,23,08,10,16.70
2011,08,23,08,11,16.70
2011,08,23,08,12,16.70
2011,08,23,08,13,16.70
2011,08,23,08,14,16.70
2011,08,23,08,15,16.70
2011,08,23,08,16,16.70
2011,08,23,08,17,16.70
2011,08,23,08,18,16.70
2011,08,23,08,19,16.70
2011,08,23,08,20,16.70
2011,08,23,08,21,16.70
2011,08,23,08,22,16.70
2011,08,23,08,23,16.70
2011,08,23,08,24,16.70
2011,08,23,08,25,16.70
2011,08,23,08,26,16.70
2011,08,23,08,27,16.70
2011,08,23,08,28,16.70
2011,08,23,08,29,16.70
2011,08,23,08,30,16.70
2011,08,23,08,31,16.70
2011,08,23,08,32,16.70
2011,08,23,08,33,16.70
2011,08,23,08,34,16.70
2011,08,23,08,35,16.80
2011,08,23,08,36,16.80
2011,08,23,08,37,16.80
2011,08,23,08,38,16.80
2011,08,23,08,39,16.80
2011,08,23,08,40,16.80
2011,08,23,08,41,16.80
2011,08,23,08,42,16.80
2011,08,23,08,43,16.80
2011,08,23,08,44,16.90
2011,08,23,08,45,16.90
2011,08,23,08,46,16.90
2011,08,23,08,47,16.90
2011,08,23,08,48,16.90
2011,08,23,08,49,16.90
2011,08,23,08,50,16.90
2011,08,23,08,51,16.90
2011,08,23,08,52,16.90
2011,08,23,08,53,16.80
2011,08,23,08,54,16.80
2011,08,23,08,55,16.80
2011,08,23,08,56,16.80
2011,08,23,08,57,16.80
2011,08,23,08,58,16.80
2011,08,23,08,59,16.70
2011,08,23,09,00,16.70
2011,08,23,09,01,16.70
2011,08,23,09,02,16.70
2011,08,23,09,03,16.70
2011,08,23,09,04,16.70
2011,08,23,09,05,16.70
2011,08,23,09,06,16.70
2011,08,23,09,07,16.70
2011,08,23,09,08,16.60
2011,08,23,09,09,16.60
2011,08,23,09,10,16.60
2011,08,23,09,11,16.60
2011,08,23,09,12,16.60
2011,08,23,09,13,16.60
2011,08,23,09,14,16.50
2011,08,23,09,15,16.50
2011,08,23,09,16,16.50
2011,08,23,09,17,16.50
2011,08,23,09,18,16.50
2011,08,23,09,19,16.50
2011,08,23,09,20,16.50
2011,08,23,09,21,16.50
2011,08,23,09,22,16.60
2011,08,23,09,23,16.60
2011,08,23,09,24,16.60
2011,08,23,09,25,16.60
2011,08,23,09,26,16.60
2011,08,23,09,27,16.60
2011,08,23,09,28,16.60
2011,08,23,09,29,16.60
2011,08,23,09,30,16.60
2011,08,23,09,31,16.60
2011,08,23,09,32,16.60
2011,08,23,09,33,16.60
2011,08,23,09,34,16.60
2011,08,23,09,35,16.60
2011,08,23,09,36,16.70
2011,08,23,09,37,16.70
2011,08,23,09,38,16.70
2011,08,23,09,39,16.70
2011,08,23,09,40,16.80
2011,08,23,09,41,16.80
2011,08,23,09,42,16.80
2011,08,23,09,43,16.80
2011,08,23,09,44,16.90
2011,08,23,09,45,16.90
2011,08,23,09,46,17.00
2011,08,23,09,47,17.10
2011,08,23,09,48,17.20
2011,08,23,09,49,17.20
2011,08,23,09,50,17.30
2011,08,23,09,51,17.40
2011,08,23,09,52,17.50
2011,08,23,09,53,17.50
2011,08,23,09,54,17.60
2011,08,23,09,55,17.70
2011,08,23,09,56,17.70
2011,08,23,09,57,17.70
2011,08,23,09,58,17.70
2011,08,23,09,59,17.70
2011,08,23,10,00,17.70
2011,08,23,10,01,17.80
2011,08,23,10,02,17.80
2011,08,23,10,03,17.80
2011,08,23,10,04,17.80
2011,08,23,10,05,17.90
2011,08,23,10,06,18.00
2011,08,23,10,07,18.00
2011,08,23,10,08,18.10
2011,08,23,10,09,18.10
2011,08,23,10,10,18.20
2011,08,23,10,11,18.20
2011,08,23,10,12,18.30
2011,08,23,10,13,18.30
2011,08,23,10,14,18.30
2011,08,23,10,15,18.30
2011,08,23,10,16,18.40
2011,08,23,10,17,18.40
2011,08,23,10,18,18.40
2011,08,23,10,19,18.50
2011,08,23,10,20,18.50
2011,08,23,10,21,18.40
2011,08,23,10,22,18.40
2011,08,23,10,23,18.50
2011,08,23,10,24,18.50
2011,08,23,10,25,18.50
2011,08,23,10,26,18.50
2011,08,23,10,27,18.60
2011,08,23,10,28,18.60
2011,08,23,10,29,18.60
2011,08,23,10,30,18.70
2011,08,23,10,31,18.60
2011,08,23,10,32,18.70
2011,08,23,10,33,18.70
2011,08,23,10,34,18.70
2011,08,23,10,35,18.70
2011,08,23,10,36,18.70
2011,08,23,10,37,18.80
2011,08,23,10,38,18.80
2011,08,23,10,39,18.90
2011,08,23,10,40,18.90
2011,08,23,10,41,19.00
2011,08,23,10,42,19.10
2011,08,23,10,43,19.20
2011,08,23,10,44,19.20
2011,08,23,10,45,19.20
2011,08,23,10,46,19.20
2011,08,23,10,47,19.30
2011,08,23,10,48,19.40
2011,08,23,10,49,19.40
2011,08,23,10,50,19.50
2011,08,23,10,51,19.50
2011,08,23,10,52,19.60
2011,08,23,10,53,19.70
2011,08,23,10,54,19.70
2011,08,23,10,55,19.80
2011,08,23,10,56,19.90
2011,08,23,10,57,20.00
2011,08,23,10,58,20.00
2011,08,23,10,59,20.00
2011,08,23,11,00,19.90
2011,08,23,11,01,19.90
2011,08,23,11,02,19.80
2011,08,23,11,03,19.80
2011,08,23,11,04,19.70
2011,08,23,11,05,19.60
2011,08,23,11,06,19.60
2011,08,23,11,07,19.50
2011,08,23,11,08,19.50
2011,08,23,11,09,19.50
2011,08,23,11,10,19.40
2011,08,23,11,11,19.40
2011,08,23,11,12,19.40
2011,08,23,11,13,19.40
2011,08,23,11,14,19.40
2011,08,23,11,15,19.30
2011,08,23,11,16,19.30
2011,08,23,11,17,19.30
2011,08,23,11,18,19.30
2011,08,23,11,19,19.30
2011,08,23,11,20,19.20
2011,08,23,11,21,19.20
2011,08,23,11,22,19.10
2011,08,23,11,23,19.10
2011,08,23,11,24,19.00
2011,08,23,11,25,19.00
2011,08,23,11,26,19.00
2011,08,23,11,27,19.00
2011,08,23,11,28,19.00
2011,08,23,11,29,19.10
2011,08,23,11,30,19.10
2011,08,23,11,31,19.20
2011,08,23,11,32,19.30
2011,08,23,11,33,19.40
2011,08,23,11,34,19.50
2011,08,23,11,35,19.60
2011,08,23,11,36,19.60
2011,08,23,11,37,19.60
2011,08,23,11,38,19.60
2011,08,23,11,39,19.60
2011,08,23,11,40,19.60
2011,08,23,11,41,19.60
2011,08,23,11,42,19.50
2011,08,23,11,43,19.40
2011,08,23,11,44,19.40
2011,08,23,11,45,19.30
2011,08,23,11,46,19.30
2011,08,23,11,47,19.20
2011,08,23,11,48,19.20
2011,08,23,11,49,19.10
2011,08,23,11,50,19.10
2011,08,23,11,51,19.10
2011,08,23,11,52,19.10
2011,08,23,11,53,19.00
2011,08,23,11,54,19.00
2011,08,23,11,55,19.00
2011,08,23,11,56,19.00
2011,08,23,11,57,19.00
2011,08,23,11,58,19.00
2011,08,23,11,59,19.00
2011,08,23,12,00,19.10
2011,08,23,12,01,19.10
2011,08,23,12,02,19.10
2011,08,23,12,03,19.10
2011,08,23,12,04,19.00
2011,08,23,12,05,19.10
2011,08,23,12,06,19.10
2011,08,23,12,07,19.10
2011,08,23,12,08,19.10
2011,08,23,12,09,19.10
2011,08,23,12,10,19.10
2011,08,23,12,11,19.10
2011,08,23,12,12,19.20
2011,08,23,12,13,19.20
2011,08,23,12,14,19.20
2011,08,23,12,15,19.30
2011,08,23,12,16,19.30
2011,08,23,12,17,19.30
2011,08,23,12,18,19.30
2011,08,23,12,19,19.30
2011,08,23,12,20,19.30
2011,08,23,12,21,19.40
2011,08,23,12,22,19.40
2011,08,23,12,23,19.40
2011,08,23,12,24,19.50
2011,08,23,12,25,19.50
2011,08,23,12,26,19.50
2011,08,23,12,27,19.60
2011,08,23,12,28,19.60
2011,08,23,12,29,19.60
2011,08,23,12,30,19.70
2011,08,23,12,31,19.70
2011,08,23,12,32,19.70
2011,08,23,12,33,19.80
2011,08,23,12,34,19.80
2011,08,23,12,35,19.80
2011,08,23,12,36,19.90
2011,08,23,12,37,19.90
2011,08,23,12,38,19.90
2011,08,23,12,39,20.00
2011,08,23,12,40,20.00
2011,08,23,12,41,20.00
2011,08,23,12,42,19.90
2011,08,23,12,43,19.90
2011,08,23,12,44,19.80
2011,08,23,12,45,19.80
2011,08,23,12,46,19.80
2011,08,23,12,47,19.80
2011,08,23,12,48,19.80
2011,08,23,12,49,19.80
2011,08,23,12,50,19.80
2011,08,23,12,51,19.80
2011,08,23,12,52,19.80
2011,08,23,12,53,19.80
2011,08,23,12,54,19.80
2011,08,23,12,55,19.80
2011,08,23,12,56,19.80
2011,08,23,12,57,19.80
2011,08,23,12,58,19.80
2011,08,23,12,59,19.80
2011,08,23,13,00,19.90
2011,08,23,13,01,19.90
2011,08,23,13,02,19.90
2011,08,23,13,03,19.90
2011,08,23,13,04,19.90
2011,08,23,13,05,19.80
2011,08,23,13,06,19.70
2011,08,23,13,07,19.70
2011,08,23,13,08,19.70
2011,08,23,13,09,19.60
2011,08,23,13,10,19.60
2011,08,23,13,11,19.60
2011,08,23,13,12,19.60
2011,08,23,13,13,19.60
2011,08,23,13,14,19.60
2011,08,23,13,15,19.60
2011,08,23,13,16,19.70
2011,08,23,13,17,19.70
2011,08,23,13,18,19.70
2011,08,23,13,19,19.60
2011,08,23,13,20,19.70
2011,08,23,13,21,19.70
2011,08,23,13,22,19.80
2011,08,23,13,23,19.90
2011,08,23,13,24,20.00
2011,08,23,13,25,20.10
2011,08,23,13,26,20.20
2011,08,23,13,27,20.20
2011,08,23,13,28,20.30
2011,08,23,13,29,20.30
2011,08,23,13,30,20.40
2011,08,23,13,31,20.40
2011,08,23,13,32,20.50
2011,08,23,13,33,20.60
2011,08,23,13,34,20.60
2011,08,23,13,35,20.70
2011,08,23,13,36,20.60
2011,08,23,13,37,20.60
2011,08,23,13,38,20.50
2011,08,23,13,39,20.50
2011,08,23,13,40,20.50
2011,08,23,13,41,20.50
2011,08,23,13,42,20.60
2011,08,23,13,43,20.60
2011,08,23,13,44,20.50
2011,08,23,13,45,20.40
2011,08,23,13,46,20.40
2011,08,23,13,47,20.30
2011,08,23,13,48,20.30
2011,08,23,13,49,20.30
2011,08,23,13,50,20.30
2011,08,23,13,51,20.30
2011,08,23,13,52,20.30
2011,08,23,13,53,20.30
2011,08,23,13,54,20.30
2011,08,23,13,55,20.30
2011,08,23,13,56,20.30
2011,08,23,13,57,20.30
2011,08,23,13,58,20.30
2011,08,23,13,59,20.40
2011,08,23,14,00,20.40
2011,08,23,14,01,20.40
2011,08,23,14,02,20.30
2011,08,23,14,03,20.30
2011,08,23,14,04,20.30
2011,08,23,14,05,20.30
2011,08,23,14,06,20.40
2011,08,23,14,07,20.40
2011,08,23,14,08,20.50
2011,08,23,14,09,20.50
2011,08,23,14,10,20.60
2011,08,23,14,11,20.60
2011,08,23,14,12,20.60
2011,08,23,14,13,20.60
2011,08,23,14,14,20.60
2011,08,23,14,15,20.60
2011,08,23,14,16,20.60
2011,08,23,14,17,20.60
2011,08,23,14,18,20.60
2011,08,23,14,19,20.60
2011,08,23,14,20,20.60
2011,08,23,14,21,20.60
2011,08,23,14,22,20.70
2011,08,23,14,23,20.70
2011,08,23,14,24,20.70
2011,08,23,14,25,20.70
2011,08,23,14,26,20.70
2011,08,23,14,27,20.70
2011,08,23,14,28,20.70
2011,08,23,14,29,20.70
2011,08,23,14,30,20.70
2011,08,23,14,31,20.80
2011,08,23,14,32,20.80
2011,08,23,14,33,20.90
2011,08,23,14,34,20.90
2011,08,23,14,35,20.90
2011,08,23,14,36,20.90
2011,08,23,14,37,20.90
2011,08,23,14,38,20.90
2011,08,23,14,39,20.90
2011,08,23,14,40,20.80
2011,08,23,14,41,20.80
2011,08,23,14,42,20.70
2011,08,23,14,43,20.70
2011,08,23,14,44,20.60
2011,08,23,14,45,20.60
2011,08,23,14,46,20.60
2011,08,23,14,47,20.60
2011,08,23,14,48,20.60
2011,08,23,14,49,20.60
2011,08,23,14,50,20.60
2011,08,23,14,51,20.60
2011,08,23,14,52,20.60
2011,08,23,14,53,20.70
2011,08,23,14,54,20.70
2011,08,23,14,55,20.80
2011,08,23,14,56,20.80
2011,08,23,14,57,20.80
2011,08,23,14,58,20.80
2011,08,23,14,59,20.90
2011,08,23,15,00,20.90
2011,08,23,15,01,20.90
2011,08,23,15,02,20.80
2011,08,23,15,03,20.80
2011,08,23,15,04,20.80
2011,08,23,15,05,20.80
2011,08,23,15,06,20.80
2011,08,23,15,07,20.90
2011,08,23,15,08,21.00
2011,08,23,15,09,21.00
2011,08,23,15,10,20.90
2011,08,23,15,11,20.90
2011,08,23,15,12,20.80
2011,08,23,15,13,20.70
2011,08,23,15,14,20.70
2011,08,23,15,15,20.70
2011,08,23,15,16,20.70
2011,08,23,15,17,20.60
2011,08,23,15,18,20.60
2011,08,23,15,19,20.60
2011,08,23,15,20,20.50
2011,08,23,15,21,20.50
2011,08,23,15,22,20.50
2011,08,23,15,23,20.60
2011,08,23,15,24,20.60
2011,08,23,15,25,20.70
2011,08,23,15,26,20.80
2011,08,23,15,27,21.00
2011,08,23,15,28,21.10
2011,08,23,15,29,21.20
2011,08,23,15,30,21.30
2011,08,23,15,31,21.40
2011,08,23,15,32,21.40
2011,08,23,15,33,21.50
2011,08,23,15,34,21.50
2011,08,23,15,35,21.40
2011,08,23,15,36,21.40
2011,08,23,15,37,21.30
2011,08,23,15,38,21.30
2011,08,23,15,39,21.20
2011,08,23,15,40,21.20
2011,08,23,15,41,21.20
2011,08,23,15,42,21.20
2011,08,23,15,43,21.20
2011,08,23,15,44,21.30
2011,08,23,15,45,21.30
2011,08,23,15,46,21.40
2011,08,23,15,47,21.40
2011,08,23,15,48,21.40
2011,08,23,15,49,21.20
2011,08,23,15,50,21.10
2011,08,23,15,51,21.00
2011,08,23,15,52,21.00
2011,08,23,15,53,20.90
2011,08,23,15,54,20.90
2011,08,23,15,55,20.90
2011,08,23,15,56,20.90
2011,08,23,15,57,20.90
2011,08,23,15,58,20.90
2011,08,23,15,59,20.90
2011,08,23,16,00,20.90
2011,08,23,16,01,20.90
2011,08,23,16,02,20.80
2011,08,23,16,03,20.80
2011,08,23,16,04,20.90
2011,08,23,16,05,20.90
2011,08,23,16,06,21.00
2011,08,23,16,07,21.10
2011,08,23,16,08,21.10
2011,08,23,16,09,21.20
2011,08,23,16,10,21.20
2011,08,23,16,11,21.20
2011,08,23,16,12,21.30
2011,08,23,16,13,21.30
2011,08,23,16,14,21.20
2011,08,23,16,15,21.20
2011,08,23,16,16,21.20
2011,08,23,16,17,21.20
2011,08,23,16,18,21.10
2011,08,23,16,19,21.20
2011,08,23,16,20,21.20
2011,08,23,16,21,21.20
2011,08,23,16,22,21.20
2011,08,23,16,23,21.30
2011,08,23,16,24,21.40
2011,08,23,16,25,21.40
2011,08,23,16,26,21.50
2011,08,23,16,27,21.50
2011,08,23,16,28,21.50
2011,08,23,16,29,21.40
2011,08,23,16,30,21.40
2011,08,23,16,31,21.40
2011,08,23,16,32,21.40
2011,08,23,16,33,21.40
2011,08,23,16,34,21.40
2011,08,23,16,35,21.40
2011,08,23,16,36,21.50
2011,08,23,16,37,21.50
2011,08,23,16,38,21.50
2011,08,23,16,39,21.50
2011,08,23,16,40,21.50
2011,08,23,16,41,21.60
2011,08,23,16,42,21.60
2011,08,23,16,43,21.60
2011,08,23,16,44,21.60
2011,08,23,16,45,21.50
2011,08,23,16,46,21.40
2011,08,23,16,47,21.30
2011,08,23,16,48,21.20
2011,08,23,16,49,21.20
2011,08,23,16,50,21.20
2011,08,23,16,51,21.30
2011,08,23,16,52,21.30
2011,08,23,16,53,21.30
2011,08,23,16,54,21.40
2011,08,23,16,55,21.40
2011,08,23,16,56,21.50
2011,08,23,16,57,21.50
2011,08,23,16,58,21.50
2011,08,23,16,59,21.60
2011,08,23,17,00,21.60
2011,08,23,17,01,21.70
2011,08,23,17,02,21.70
2011,08,23,17,03,21.70
2011,08,23,17,04,21.80
2011,08,23,17,05,21.80
2011,08,23,17,06,21.80
2011,08,23,17,07,21.80
2011,08,23,17,08,21.90
2011,08,23,17,09,21.90
2011,08,23,17,10,22.00
2011,08,23,17,11,22.10
2011,08,23,17,12,22.10
2011,08,23,17,13,22.10
2011,08,23,17,14,22.10
2011,08,23,17,15,22.00
2011,08,23,17,16,22.10
2011,08,23,17,17,22.10
2011,08,23,17,18,22.10
2011,08,23,17,19,22.10